カタログに戻る

KUIPER-00176

運用中通信LEO
NORAD 65788·PAYLOAD·🇺🇸 United States

打ち上げ Sep 25, 2025 から Cape Canaveral Space Force Station

Loading…

次のパス (今後24時間)

TLE

最新Source: CelesTrak SupGP

元期: Sep 14, 2026, 20:12 UTC

1 65788C 25217AC  26257.84208333  .00000075  00000+0  98007-5 0  2571
2 65788  51.8989 286.6645 0000624  45.6501 355.6809 14.79927601    19

AllMySatでKUIPER-00176をリアルタイム追跡

Download on the App Store